[[{"header":{"parameterUnit":"m.s-1","parameterCategory":1,"la1":30.2991,"la2":30.254,"lo1":-89.0895,"lo2":-89.0444,"dy":0.0017,"dx":0.0017,"nx":28,"ny":28,"refTime":"2024-06-11T21:00:00:Z","depth":0,"parameterNumber":2,"parameterNumberName":"U-component_of_WINDS"},"data":[0,0,0,0,0,0,0,0,0,0,0,0,0,0,0,0,0,0,0,0,0,0,0,0,0,0,0,0,0,0,0,0,0,0,0,0,0,0,0,0,0,0,0,0,0,0,0,0,0,0,0,0,0,0,0,0,0,0,-2.5295,-2.5295,0,-2.526,-2.5259,-2.5259,-2.5168,-2.5166,-2.5164,-2.5162,-2.5128,-2.5129,-2.513,0,0,0,0,0,0,0,0,0,0,0,0,0,-2.5287,-2.5288,-2.5295,-2.5295,-2.5294,-2.526,-2.5259,-2.5259,-2.5168,-2.5166,-2.5164,-2.5161,-2.5128,-2.5129,-2.513,0,0,0,0,0,0,0,0,0,0,0,0,0,-2.5275,-2.5288,-2.5295,-2.5245,-2.524,-2.526,-2.5259,-2.5259,-2.5169,-2.5166,-2.5163,-2.516,-2.5128,-2.5129,-2.513,-2.5197,0,0,-2.5135,-2.5135,0,0,0,0,0,0,0,0,-2.5276,-2.5276,-2.5253,-2.5248,-2.5243,-2.5215,-2.5244,-2.5238,-2.517,-2.5196,-2.5162,-2.5159,-2.516,-2.5158,-2.5158,-2.5195,-2.5194,-2.5135,-2.5136,-2.5136,-2.5137,0,0,0,0,0,0,0,-2.5277,-2.5277,-2.5281,-2.5253,-2.5247,-2.5225,-2.522,-2.5242,-2.5195,-2.5193,-2.5187,-2.5184,-2.5157,-2.5157,-2.5157,-2.5193,-2.5135,-2.5136,-2.5137,-2.5137,-2.5285,-2.5288,0,0,0,0,0,0,-2.5285,-2.5278,-2.5282,-2.528,-2.5253,-2.5228,-2.5222,-2.5227,-2.5194,-2.5186,-2.5186,-2.518,-2.5156,-2.5155,-2.5155,-2.5232,-2.5136,-2.5137,-2.5138,-2.5282,-2.5286,-2.5289,0,0,0,0,0,0,-2.5285,-2.5286,-2.5284,-2.5277,-2.5275,-2.5231,-2.5237,-2.5228,-2.5228,-2.5189,-2.518,-2.5195,-2.5154,-2.5153,-2.5187,-2.523,-2.5138,-2.5139,-2.5278,-2.5283,-2.5288,-2.5386,0,0,0,0,0,0,-2.5285,-2.5287,-2.5311,-2.5278,-2.5276,-2.5316,-2.524,-2.5229,-2.5231,-2.5222,-2.5195,-2.5188,-2.5152,-2.5186,-2.5189,-2.523,-2.514,-2.5274,-2.5281,-2.5286,-2.5379,-2.5394,-2.5406,0,0,0,0,0,-2.5285,-2.534,-2.5312,-2.5313,-2.5305,-2.5319,-2.5317,-2.5274,-2.5234,-2.5259,-2.5234,-2.5189,-2.5224,-2.519,-2.5193,-2.5235,-2.5272,-2.5279,-2.5286,-2.5373,-2.5391,-2.5406,0,0,0,0,0,0,-2.5379,-2.5335,-2.5304,-2.535,-2.5339,-2.5303,-2.5333,-2.5294,-2.5294,-2.5286,-2.5233,-2.5228,-2.527,-2.5255,-2.5218,-2.5298,-2.5241,-2.5249,-2.5306,-2.5323,-2.5336,-2.534,-2.5141,0,0,0,0,0,-2.5405,-2.5419,-2.538,-2.5424,-2.542,-2.5378,-2.5382,-2.5349,-2.5336,-2.5331,-2.5308,-2.5298,-2.5307,-2.5314,-2.532,-2.5376,-2.537,-2.5406,-2.542,-2.5431,-2.5439,-2.547,-2.5486,-2.5312,-2.5312,-2.5312,0,0,-2.5459,-2.5437,-2.5449,-2.5443,-2.543,-2.5447,-2.5374,-2.5395,-2.5407,-2.5334,-2.5366,-2.5349,-2.5333,-2.538,-2.5399,-2.5369,-2.5486,-2.544,-2.545,-2.5451,-2.5479,-2.5495,-2.551,-2.5317,-2.5316,-2.5315,0,0,-2.5566,-2.555,-2.5586,-2.5575,-2.5557,-2.5528,-2.5537,-2.5508,-2.5494,-2.5524,-2.547,-2.5484,-2.55,-2.5492,-2.549,-2.5596,-2.5555,-2.5599,-2.5671,-2.5701,-2.5715,-2.5727,-2.5766,-2.5781,-2.5607,-2.5607,-2.5607,0,-2.5636,-2.5658,-2.5609,-2.5634,-2.5633,-2.5568,-2.5605,-2.5596,-2.5582,-2.5584,-2.555,-2.557,-2.5555,-2.5599,-2.5625,-2.5625,-2.5634,-2.5603,-2.5717,-2.5728,-2.5739,-2.5775,-2.579,-2.5613,-2.5612,-2.5611,-2.5611,0,-2.5746,-2.5762,-2.5793,-2.578,-2.5783,-2.5814,-2.5771,-2.578,-2.5747,-2.5723,-2.5756,-2.5735,-2.5737,-2.5744,-2.5713,-2.5785,-2.5767,-2.5726,-2.5667,-2.5762,-2.5795,-2.5809,-2.5621,-2.5619,-2.5617,-2.5616,0,0,-2.5911,-2.5871,-2.5884,-2.5878,-2.5854,-2.5866,-2.5894,-2.5895,-2.5904,-2.5896,-2.592,-2.5935,-2.5897,-2.5895,-2.5862,-2.5889,-2.5976,-2.5844,-2.5843,-2.5871,-2.6056,-2.6088,-2.6105,-2.5948,-2.5951,-2.5952,-2.6057,0,-2.6014,-2.6059,-2.6016,-2.607,-2.6086,-2.6024,-2.6048,-2.6037,-2.6015,-2.6026,-2.6001,-2.6014,-2.5962,-2.5961,-2.5984,-2.596,-2.6012,-2.5952,-2.5971,-2.5972,-2.5978,-2.6122,-2.6156,-2.6256,-2.607,-2.6072,-2.6074,0,-2.6139,-2.6137,-2.6192,-2.6166,-2.617,-2.6193,-2.6191,-2.6202,-2.6188,-2.617,-2.6169,-2.6128,-2.6155,-2.6097,-2.6135,-2.6095,-2.61,-2.6089,-2.6092,-2.6094,-2.603,-2.6129,-2.6287,-2.6302,-2.6094,-2.6092,-2.6091,0,-2.6256,-2.6267,-2.6302,-2.6299,-2.6268,-2.6286,-2.6274,-2.6257,-2.6261,-2.6259,-2.6261,-2.6263,-2.6265,-2.6268,-2.623,-2.6191,-2.6273,-2.6211,-2.6261,-2.6262,-2.6282,-2.6281,-2.6444,-2.6283,-2.6283,-2.6282,-2.6282,0,-2.6376,-2.6413,-2.6355,-2.6377,-2.6417,-2.6368,-2.6409,-2.6391,-2.6377,-2.6395,-2.6341,-2.636,-2.6307,-2.6321,-2.6291,-2.6328,-2.6328,-2.6316,-2.6308,-2.6322,-2.6324,-2.6325,-2.6318,-2.6286,-2.6285,-2.6285,-2.6284,0,-2.6514,-2.6477,-2.6511,-2.6479,-2.6472,-2.6503,-2.6476,-2.6496,-2.647,-2.6494,-2.6497,-2.6457,-2.647,-2.6432,-2.6439,-2.6419,-2.6473,-2.6453,-2.6478,-2.6472,-2.6524,-2.6521,-2.6695,-2.6716,-2.6541,-2.6542,-2.6544,0,-2.6594,-2.6621,-2.6592,-2.66,-2.6591,-2.6604,-2.6608,-2.6561,-2.6567,-2.6554,-2.6576,-2.6584,-2.6588,-2.6612,-2.6585,-2.659,-2.6571,-2.6632,-2.6571,-2.6585,-2.6574,-2.6573,-2.6577,-2.6645,-2.6647,-2.6649,-2.665,0,-2.674,-2.672,-2.6726,-2.6727,-2.6733,-2.6731,-2.6726,-2.6736,-2.6686,-2.6696,-2.6708,-2.6711,-2.6719,-2.6728,-2.6728,-2.6717,-2.6676,-2.6669,-2.6681,-2.6696,-2.671,-2.6705,-2.6514,-2.6665,-2.6664,-2.6663,-2.6662,-2.6661,-2.6852,-2.6874,-2.6857,-2.6867,-2.6858,-2.6854,-2.6872,-2.6848,-2.6857,-2.6859,-2.6831,-2.685,-2.6837,-2.6832,-2.6825,-2.684,-2.6812,-2.6829,-2.6833,-2.6839,-2.6848,-2.6707,-2.6839,-2.6839,-2.6838,-2.6838,-2.6837,0,-2.6997,-2.6983,-2.6992,-2.6986,-2.6995,-2.6954,-2.6947,-2.6956,-2.6973,-2.6964,-2.6969,-2.6984,-2.6994,-2.6967,-2.6973,-2.699,-2.6972,-2.6993,-2.6992,-2.6991,-2.6872,-2.6862,-2.7008,-2.7008,-2.7008,-2.7008,-2.7008,-2.7008,-2.7073,-2.7108,-2.7086,-2.7117,-2.7103,-2.712,-2.712,-2.7117,-2.7109,-2.7128,-2.7135,-2.7118,-2.7102,-2.7106,-2.7114,-2.7105,-2.7111,-2.714,-2.7126,-2.7015,-2.6999,-2.6983,-2.6973,-2.7141,-2.7141,-2.7243,-2.7244,-2.7245]},{"header":{"parameterUnit":"m.s-1","parameterCategory":1,"la1":30.2991,"la2":30.254,"lo1":-89.0895,"lo2":-89.0444,"dy":0.0017,"dx":0.0017,"nx":28,"ny":28,"refTime":"2024-06-11T21:00:00:Z","depth":0,"parameterNumber":3,"parameterNumberName":"V-component_of_WINDS"},"data":[0,0,0,0,0,0,0,0,0,0,0,0,0,0,0,0,0,0,0,0,0,0,0,0,0,0,0,0,0,0,0,0,0,0,0,0,0,0,0,0,0,0,0,0,0,0,0,0,0,0,0,0,0,0,0,0,0,0,-3.4625,-3.4626,0,-3.4675,-3.4676,-3.4676,-3.4635,-3.4633,-3.4632,-3.463,-3.4678,-3.4681,-3.4684,0,0,0,0,0,0,0,0,0,0,0,0,0,-3.4492,-3.4495,-3.4625,-3.4626,-3.4627,-3.4675,-3.4676,-3.4676,-3.4635,-3.4633,-3.4631,-3.4629,-3.4677,-3.468,-3.4684,0,0,0,0,0,0,0,0,0,0,0,0,0,-3.4547,-3.4496,-3.4625,-3.4612,-3.4611,-3.4675,-3.4676,-3.4676,-3.4636,-3.4633,-3.4631,-3.4628,-3.4676,-3.468,-3.4684,-3.4763,0,0,-3.4698,-3.4699,0,0,0,0,0,0,0,0,-3.4544,-3.4552,-3.4613,-3.4613,-3.4612,-3.4646,-3.4646,-3.4705,-3.4636,-3.4626,-3.463,-3.4627,-3.4669,-3.4674,-3.4689,-3.4765,-3.4767,-3.4698,-3.4701,-3.4702,-3.4704,0,0,0,0,0,0,0,-3.454,-3.4549,-3.4645,-3.4614,-3.4614,-3.4603,-3.4608,-3.4657,-3.4662,-3.4627,-3.4624,-3.4631,-3.4669,-3.4685,-3.469,-3.4768,-3.4698,-3.4702,-3.4704,-3.4706,-3.491,-3.4913,0,0,0,0,0,0,-3.4538,-3.4546,-3.4643,-3.4646,-3.4571,-3.4607,-3.4613,-3.4638,-3.4661,-3.4662,-3.4633,-3.4629,-3.4679,-3.4685,-3.4691,-3.4785,-3.4702,-3.4706,-3.4709,-3.4907,-3.4911,-3.4914,0,0,0,0,0,0,-3.4535,-3.4547,-3.4641,-3.4596,-3.4607,-3.4612,-3.4641,-3.464,-3.4657,-3.4665,-3.4666,-3.4649,-3.4677,-3.4685,-3.4745,-3.4786,-3.4708,-3.4712,-3.4904,-3.4908,-3.4912,-3.4972,0,0,0,0,0,0,-3.4532,-3.4546,-3.4577,-3.4597,-3.4609,-3.4696,-3.4643,-3.4643,-3.4664,-3.4659,-3.4681,-3.4682,-3.4676,-3.4739,-3.475,-3.479,-3.4716,-3.49,-3.4906,-3.4911,-3.4966,-3.4978,-3.4987,0,0,0,0,0,-3.4527,-3.4591,-3.4578,-3.459,-3.4648,-3.4698,-3.4705,-3.4698,-3.4668,-3.4698,-3.4704,-3.4681,-3.478,-3.4746,-3.4757,-3.48,-3.4898,-3.4904,-3.4911,-3.4962,-3.4975,-3.4987,0,0,0,0,0,0,-3.4574,-3.4593,-3.458,-3.4652,-3.4674,-3.4691,-3.4729,-3.4712,-3.4742,-3.4736,-3.4725,-3.473,-3.4794,-3.4802,-3.4764,-3.4877,-3.4834,-3.4843,-3.4869,-3.4882,-3.4892,-3.4889,-3.4719,0,0,0,0,0,-3.4593,-3.4633,-3.4647,-3.4709,-3.4721,-3.4723,-3.4745,-3.4737,-3.4759,-3.4768,-3.4778,-3.4799,-3.4835,-3.4859,-3.4892,-3.4967,-3.4971,-3.5002,-3.5013,-3.5021,-3.5029,-3.507,-3.5084,-3.4935,-3.4935,-3.4935,0,0,-3.4632,-3.4648,-3.4673,-3.4719,-3.4735,-3.4777,-3.4731,-3.4777,-3.4807,-3.4774,-3.4832,-3.4841,-3.4863,-3.4932,-3.4962,-3.4941,-3.5071,-3.5029,-3.5036,-3.5039,-3.5078,-3.5092,-3.5104,-3.4939,-3.4938,-3.4938,0,0,-3.4725,-3.4741,-3.4795,-3.4812,-3.4837,-3.4838,-3.4851,-3.4871,-3.4876,-3.4934,-3.4911,-3.4946,-3.5008,-3.5025,-3.5042,-3.5142,-3.5122,-3.5153,-3.5208,-3.5248,-3.5259,-3.527,-3.5306,-3.5319,-3.5161,-3.5161,-3.5161,0,-3.477,-3.4832,-3.4824,-3.4872,-3.4892,-3.4866,-3.492,-3.4937,-3.4972,-3.4986,-3.4962,-3.504,-3.5053,-3.5125,-3.515,-3.5164,-3.5179,-3.5151,-3.5259,-3.5269,-3.5278,-3.5313,-3.5326,-3.5165,-3.5164,-3.5164,-3.5164,0,-3.4887,-3.493,-3.497,-3.5006,-3.5031,-3.5082,-3.5081,-3.5107,-3.5097,-3.5101,-3.516,-3.5176,-3.5212,-3.5228,-3.5219,-3.5299,-3.5286,-3.526,-3.5217,-3.5296,-3.5328,-3.5341,-3.517,-3.5169,-3.5168,-3.5167,0,0,-3.501,-3.5041,-3.5056,-3.5072,-3.5099,-3.5131,-3.5181,-3.5217,-3.524,-3.5265,-3.5306,-3.5359,-3.5336,-3.5355,-3.5347,-3.5382,-3.5461,-3.5353,-3.5353,-3.5373,-3.5551,-3.557,-3.5585,-3.5448,-3.545,-3.5452,-3.5549,0,-3.5104,-3.5191,-3.5186,-3.5267,-3.5307,-3.5283,-3.5326,-3.5346,-3.5351,-3.5384,-3.5389,-3.5427,-3.5394,-3.5405,-3.5439,-3.5444,-3.5497,-3.5437,-3.5485,-3.5487,-3.5481,-3.5602,-3.5622,-3.5712,-3.5561,-3.5563,-3.5565,0,-3.5226,-3.5256,-3.5342,-3.5363,-3.538,-3.5418,-3.5452,-3.5484,-3.5507,-3.5508,-3.553,-3.5516,-3.5565,-3.5521,-3.5588,-3.5548,-3.5567,-3.5573,-3.5576,-3.558,-3.5531,-3.5609,-3.5741,-3.5755,-3.5584,-3.5583,-3.5581,0,-3.5308,-3.537,-3.543,-3.5444,-3.547,-3.5498,-3.5509,-3.5529,-3.5552,-3.558,-3.5595,-3.5629,-3.5647,-3.5673,-3.5669,-3.5637,-3.5737,-3.5692,-3.5739,-3.5739,-3.5761,-3.576,-3.5898,-3.5773,-3.5773,-3.5773,-3.5772,0,-3.5414,-3.5467,-3.5467,-3.5504,-3.5563,-3.5555,-3.5614,-3.5622,-3.564,-3.5678,-3.5658,-3.5693,-3.5686,-3.572,-3.5717,-3.5773,-3.5782,-3.5783,-3.5782,-3.5785,-3.5785,-3.5798,-3.5791,-3.5776,-3.5775,-3.5775,-3.5774,0,-3.5515,-3.5517,-3.5581,-3.56,-3.5607,-3.5649,-3.5666,-3.57,-3.5703,-3.5751,-3.5761,-3.5766,-3.5806,-3.5804,-3.5849,-3.5847,-3.5916,-3.5907,-3.5909,-3.5907,-3.5954,-3.595,-3.6105,-3.6125,-3.5987,-3.5989,-3.599,0,-3.5583,-3.5624,-3.5648,-3.5673,-3.5687,-3.5726,-3.5749,-3.5743,-3.5768,-3.5797,-3.5828,-3.5866,-3.5897,-3.5962,-3.5968,-3.6003,-3.5994,-3.6047,-3.5999,-3.6002,-3.5996,-3.5993,-3.5997,-3.6056,-3.6057,-3.6059,-3.606,0,-3.5703,-3.5702,-3.5737,-3.5773,-3.5801,-3.5829,-3.5854,-3.5874,-3.5871,-3.59,-3.5941,-3.5965,-3.6012,-3.605,-3.6083,-3.6094,-3.6076,-3.6075,-3.6087,-3.6091,-3.6091,-3.6092,-3.5935,-3.6071,-3.607,-3.6069,-3.6068,-3.6068,-3.579,-3.5825,-3.5849,-3.5888,-3.5907,-3.5931,-3.5964,-3.5972,-3.6007,-3.6045,-3.6039,-3.6085,-3.6106,-3.6149,-3.6163,-3.6199,-3.618,-3.6198,-3.6203,-3.6208,-3.6213,-3.6085,-3.6205,-3.6204,-3.6204,-3.6204,-3.6204,0,-3.5909,-3.5923,-3.596,-3.5996,-3.6027,-3.6009,-3.6036,-3.6063,-3.6104,-3.6126,-3.6157,-3.6205,-3.6242,-3.6252,-3.6287,-3.6314,-3.6307,-3.6323,-3.6322,-3.6324,-3.6228,-3.6214,-3.6329,-3.6329,-3.6329,-3.6329,-3.6329,-3.6329,-3.5975,-3.6034,-3.6036,-3.6104,-3.6117,-3.6164,-3.6181,-3.6202,-3.622,-3.6275,-3.6306,-3.6312,-3.6329,-3.6366,-3.6399,-3.6401,-3.6415,-3.6435,-3.6434,-3.6344,-3.6331,-3.6319,-3.6306,-3.6438,-3.6439,-3.6528,-3.6529,-3.6529]}]]